Stations météo

réclame
Mon MeteoGroup
Bordeaux/Merignac, France (7510): Température de l'air & dewpoint: 16.06.2018 19:00:00 - 22.06.2018 19:00:00 (CEST)Bordeaux/Merignac, France (7510): Température de l'air 5cm: 16.06.2018 19:00:00 - 22.06.2018 19:00:00 (CEST)Bordeaux/Merignac, France (7510): Température de l'air -20cm & Température de l'air -100cm: 16.06.2018 19:00:00 - 22.06.2018 19:00:00 (CEST)Bordeaux/Merignac, France (7510): Vitesse du vent & gusts: 16.06.2018 19:00:00 - 22.06.2018 19:00:00 (CEST)Bordeaux/Merignac, France (7510): Direction du vent: 16.06.2018 19:00:00 - 22.06.2018 19:00:00 (CEST)Bordeaux/Merignac, France (7510): reduced air pressure: 16.06.2018 19:00:00 - 22.06.2018 19:00:00 (CEST)Bordeaux/Merignac, France (7510): visibility: 16.06.2018 19:00:00 - 22.06.2018 19:00:00 (CEST)Bordeaux/Merignac, France (7510): Quantités de précipitations: 16.06.2018 19:00:00 - 22.06.2018 19:00:00 (CEST)
Date & Time tt [°C] td [°C] tt 5cm [°C] tt -20cm [°C] tt -100cm [°C] ff [km/h] ff [knt] fx [km/h] fx [knt] dd ppp [hPa] vv [km] rr [mm]
22.06.2018 19:00:00 25,1 6,8 28,4 26,0 20,0 26 14 38 21 NE 1021,6 28 0,0
22.06.2018 18:00:00 25,2 6,4 29,5 25,8 20,0 27 14 39 21 NE 1021,9 29 0,0
22.06.2018 17:00:00 25,6 7,2 30,1 25,3 20,0 22 12 40 21 NE 1022,0 27 0,0
22.06.2018 16:00:00 24,9 7,1 30,0 24,9 20,0 22 12 39 21 NE 1022,2 27 0,0
22.06.2018 15:00:00 24,1 7,3 29,3 24,3 20,0 25 14 39 21 NNE 1022,4 30 0,0
22.06.2018 14:00:00 23,0 8,7 27,6 23,8 20,0 25 14 46 25 NNE 1022,8 26 0,0
22.06.2018 13:00:00 21,7 8,9 26,8 23,3 20,0 22 12 40 22 NNE 1023,1 31 0,0
22.06.2018 12:00:00 20,7 9,9 25,3 23,0 20,0 22 12 34 18 NNE 1023,1 33 0,0
22.06.2018 11:00:00 19,6 10,6 23,6 22,9 19,9 22 12 34 18 NE 1023,2 34 0,0
22.06.2018 10:00:00 18,6 9,9 21,0 22,9 19,9 20 11 31 17 NNE 1023,1 37 0,0
22.06.2018 09:00:00 17,2 9,6 16,8 23,1 19,9 23 13 36 19 NNE 1023,0 37 0,0
22.06.2018 08:00:00 16,5 9,4 16,5 23,3 19,9 23 12 32 17 NNE 1022,7 37 0,0
22.06.2018 07:00:00 16,3 9,9 15,6 23,6 19,9 20 11 28 15 NNE 1022,6 22 0,0
22.06.2018 06:00:00 16,7 10,8 15,9 23,9 19,8 16 9 27 15 NNE 1022,3 58 0,0
22.06.2018 05:00:00 17,5 11,3 16,7 24,2 19,8 16 9 24 13 NNE 1022,0 60 0,0
22.06.2018 04:00:00 18,6 11,9 17,9 24,5 19,8 17 9 26 14 NNE 1021,6 60 0,0
22.06.2018 03:00:00 19,8 13,9 19,0 24,8 19,8 17 9 25 14 NNE 1021,5 60 0,0
22.06.2018 02:00:00 20,9 15,9 19,9 25,1 19,8 12 6 21 11 NNE 1021,4 60 0,0
22.06.2018 01:00:00 21,9 16,4 20,9 25,5 19,7 14 8 23 12 NNE 1021,2 60 0,0
22.06.2018 00:00:00 23,0 17,0 22,1 25,8 19,7 13 7 29 16 NNE 1021,2 60 0,0
21.06.2018 23:00:00 24,3 18,0 23,1 26,1 19,7 13 7 21 12 N 1020,9 53 0,0
21.06.2018 22:00:00 26,1 17,5 24,8 26,3 19,7 9 5 21 11 W 1019,9 19 0,0
21.06.2018 21:00:00 28,1 16,7 28,4 26,5 19,7 12 7 26 14 N 1019,2 36 0,0
21.06.2018 20:00:00 29,3 18,1 29,8 26,6 19,7 14 8 25 13 NNW 1019,0 41 0,0
21.06.2018 19:00:00 29,5 20,1 33,5 26,4 19,6 13 7 25 13 WNW 1018,9 23 0,0
21.06.2018 18:00:00 29,0 21,5 33,4 26,1 19,7 16 9 29 16 W 1019,1 16 0,0
21.06.2018 17:00:00 28,8 22,1 32,9 25,7 19,6 18 10 31 17 W 1019,3 12 0,0
21.06.2018 16:00:00 28,9 21,4 34,8 25,1 19,6 16 9 30 16 W 1019,4 19 0,0
21.06.2018 15:00:00 28,6 21,6 34,6 24,4 19,6 18 10 31 17 WSW 1019,4 19 0,0
21.06.2018 14:00:00 27,7 21,0 31,9 23,9 19,6 15 8 28 15 SW 1019,5 19 0,0
21.06.2018 13:00:00 26,6 20,9 31,3 23,4 19,6 11 6 22 12 SW 1019,6 16 0,0
21.06.2018 12:00:00 25,3 21,0 27,2 23,1 19,6 9 5 18 10 SW 1019,6 14 0,0
21.06.2018 11:00:00 23,2 20,7 24,9 22,9 19,5 10 5 17 9 SW 1019,4 13 0,0
21.06.2018 10:00:00 22,2 20,7 22,9 22,9 19,5 8 4 22 12 SSW 1019,5 10 0,0
21.06.2018 09:00:00 21,3 20,3 21,9 23,0 19,5 14 8 19 11 SW 1019,3 7 0,0
21.06.2018 08:00:00 20,8 20,3 20,3 23,1 19,5 13 7 20 11 WSW 1019,2 1,9 0,0
21.06.2018 07:00:00 20,0 19,7 19,2 23,3 19,4 11 6 20 11 SW 1018,8 2,1 0,0
21.06.2018 06:00:00 19,9 19,2 19,2 23,5 19,4 10 6 16 8 SW 1018,1 2,9 0,0
21.06.2018 05:00:00 20,5 19,7 18,6 23,7 19,3 11 6 16 8 SW 1017,7 3,2 0,0
21.06.2018 04:00:00 20,7 19,0 19,0 24,0 19,3 8 4 12 7 WSW 1017,8 6 0,0
21.06.2018 03:00:00 21,8 19,9 18,3 24,3 19,3 9 5 12 6 SW 1018,0 7 0,0
21.06.2018 02:00:00 22,1 20,0 18,9 24,6 19,3 5 3 6 4 WSW 1018,1 1,5 0,0
21.06.2018 01:00:00 23,0 20,3 19,2 24,9 19,3 4 2 6 3 W 1018,2 8 0,0
21.06.2018 00:00:00 24,4 19,7 20,2 25,2 19,2 4 2 6 3 W 1018,3 19 0,0
20.06.2018 23:00:00 26,0 20,1 22,7 25,5 19,2 5 3 9 5 W 1018,0 29 0,0
20.06.2018 22:00:00 28,3 18,7 26,0 25,7 19,2 8 4 17 9 W 1017,1 6 0,0
20.06.2018 21:00:00 30,7 17,0 30,6 25,9 19,2 12 6 18 10 NNE 1016,7 41 0,0
20.06.2018 20:00:00 31,5 17,4 31,5 26,0 19,2 9 5 20 11 E 1016,6 34 0,0
20.06.2018 19:00:00 31,6 17,5 32,4 25,9 19,2 11 6 31 17 ESE 1016,7 45 0,0
20.06.2018 18:00:00 31,6 18,2 32,1 25,7 19,2 6 3 26 14 NNE 1016,9 48 0,0
20.06.2018 17:00:00 32,5 17,9 37,9 25,1 19,2 6 4 20 11 ENE 1017,1 20 0,0
20.06.2018 16:00:00 32,9 16,7 38,2 24,5 19,2 6 4 21 11 E 1017,4 49 0,0
20.06.2018 15:00:00 31,3 17,2 35,8 23,8 19,2 5 3 20 11 NE 1017,7 33 0,0
20.06.2018 14:00:00 30,9 17,2 36,4 23,0 19,2 10 5 23 12 S 1018,0 42 0,0
20.06.2018 13:00:00 30,3 17,7 35,0 22,3 19,2 8 4 25 13 ESE 1018,4 44 0,0
20.06.2018 12:00:00 29,7 17,8 34,6 21,7 19,1 6 3 16 9 ESE 1018,6 21 0,0
20.06.2018 11:00:00 28,4 19,1 32,2 21,3 19,1 4 2 10 5 E 1018,7 35 0,0
20.06.2018 10:00:00 26,4 19,5 27,5 21,0 19,1 3 2 10 5 SE 1018,9 40 0,0
20.06.2018 09:00:00 23,3 18,6 21,4 21,0 19,1 6 3 10 5 E 1018,9 25 0,0
20.06.2018 08:00:00 21,2 17,8 18,4 21,2 19,1 5 3 9 5 ENE 1018,8 30 0,0
20.06.2018 07:00:00 18,5 17,3 13,9 21,3 19,1 7 4 16 9 NE 1018,8 11 0,0
20.06.2018 06:00:00 17,6 16,5 14,0 21,6 19,1 5 3 9 5 NNE 1018,7 0,3 0,0
20.06.2018 05:00:00 18,1 17,3 14,4 21,8 19,1 4 2 6 3 NNE 1018,7 0,1 0,0
20.06.2018 04:00:00 18,2 17,4 15,0 22,1 19,0 4 2 7 4 N 1019,0 7 0,0
20.06.2018 03:00:00 18,5 17,2 15,5 22,4 19,0 2 1 6 3 NNW 1019,3 0,7 0,0
20.06.2018 02:00:00 19,6 17,7 16,8 22,6 19,0 3 2 6 3 WNW 1019,6 1,3 0,0
20.06.2018 01:00:00 20,1 17,9 17,6 22,9 19,0 4 2 7 4 NW 1019,9 8 0,0
20.06.2018 00:00:00 20,9 18,1 18,8 23,1 19,0 5 3 8 4 NW 1020,3 21 0,0
19.06.2018 23:00:00 22,4 18,4 21,2 23,4 19,0 4 2 16 9 NW 1020,5 42 0,0
19.06.2018 22:00:00 24,2 17,9 22,6 23,6 19,0 11 6 21 11 N 1020,2 3,2 0,0
19.06.2018 21:00:00 26,3 18,2 27,2 23,7 19,0 12 6 26 14 N 1020,2 27 0,0
19.06.2018 20:00:00 27,6 17,7 28,6 23,7 19,0 16 9 26 14 N 1020,4 56 0,0
19.06.2018 19:00:00 27,2 17,1 28,6 23,5 19,0 13 7 29 16 N 1020,8 42 0,0
19.06.2018 18:00:00 27,2 16,8 29,4 23,3 19,0 16 9 28 15 N 1021,3 23 0,0
19.06.2018 17:00:00 27,3 16,6 29,3 22,9 19,0 14 8 32 18 NNE 1022,0 40 0,0
19.06.2018 16:00:00 26,4 16,3 28,6 22,4 19,0 14 8 23 12 NNE 1022,6 57 0,0
19.06.2018 15:00:00 25,2 15,8 27,8 21,9 19,0 13 7 27 15 NNE 1023,1 58 0,0
19.06.2018 14:00:00 25,2 15,8 29,1 21,3 19,0 12 6 22 12 N 1023,5 42 0,0
19.06.2018 13:00:00 24,1 15,3 26,8 20,7 19,0 12 6 21 12 ENE 1024,2 58 0,0
19.06.2018 12:00:00 22,9 15,5 24,8 20,1 19,0 12 7 22 12 NNE 1024,6 20 0,0
19.06.2018 11:00:00 22,5 15,6 26,3 19,7 19,0 8 4 18 10 ENE 1025,1 32 0,0
19.06.2018 10:00:00 21,4 15,5 24,6 19,5 19,0 6 4 15 8 NNE 1025,8 36 0,0
19.06.2018 09:00:00 18,8 15,5 17,2 19,5 19,0 6 4 10 5 NNE 1025,9 19 0,0
19.06.2018 08:00:00 15,7 14,7 14,0 19,6 19,0 3 1 7 4 NW 1026,2 8 0,0
19.06.2018 07:00:00 13,8 13,3 10,8 19,8 19,0 4 2 6 4 W 1026,1 4,5 0,0
19.06.2018 06:00:00 13,5 13,0 10,3 20,0 19,0 4 2 5 3 W 1026,0 0,3 0,0
19.06.2018 05:00:00 13,8 13,0 11,3 20,2 19,0 0 0 6 3 N 1026,0 19 0,0
19.06.2018 04:00:00 14,3 13,2 12,4 20,5 19,0 4 2 7 4 N 1026,1 0,5 0,0
19.06.2018 03:00:00 14,9 13,3 13,7 20,7 19,0 4 2 13 7 NW 1026,3 28 0,0
19.06.2018 02:00:00 15,4 13,2 14,2 20,9 19,0 5 3 10 5 NNW 1026,4 16 0,0
19.06.2018 01:00:00 15,9 13,4 14,8 21,2 19,0 7 4 13 7 N 1026,6 14 0,0
19.06.2018 00:00:00 16,9 13,8 16,1 21,4 19,0 7 4 14 8 NNW 1026,6 42 0,0
18.06.2018 23:00:00 17,6 14,5 16,5 21,7 19,0 8 5 13 7 NW 1026,5 43 0,0
18.06.2018 22:00:00 18,9 15,0 17,2 21,9 19,0 5 3 19 10 WNW 1025,9 25 0,0
18.06.2018 21:00:00 20,9 15,4 20,6 22,0 19,0 9 5 21 12 NNW 1025,5 32 0,0
18.06.2018 20:00:00 21,2 15,3 21,6 22,0 19,0 16 9 23 12 WNW 1025,5 53 0,0
18.06.2018 19:00:00 22,8 15,6 21,8 21,9 19,0 13 7 22 12 WNW 1025,2 56 0,0
18.06.2018 18:00:00 21,6 15,9 22,1 21,8 18,9 16 8 21 12 NW 1025,5 44 0,0
18.06.2018 17:00:00 22,9 16,4 24,3 21,6 18,9 11 6 25 14 NW 1025,5 37 0,0
18.06.2018 16:00:00 23,3 16,6 26,6 21,3 19,0 11 6 24 13 NW 1025,6 49 0,0
18.06.2018 15:00:00 22,6 16,2 23,2 21,0 19,0 13 7 22 12 NW 1025,7 17 0,0
18.06.2018 14:00:00 22,2 16,7 23,6 20,6 18,9 11 6 21 11 NW 1025,6 55 0,0
18.06.2018 13:00:00 21,4 16,6 21,5 20,3 19,0 5 3 18 10 NNW 1025,9 16 0,0
18.06.2018 12:00:00 18,9 17,0 18,4 20,0 19,0 9 5 19 11 NNW 1026,1 45 0,4
18.06.2018 11:00:00 18,0 17,0 18,1 19,9 18,9 4 2 21 11 WSW 1026,0 1,4 0,4
18.06.2018 10:00:00 17,7 17,2 17,3 19,9 18,9 14 8 21 11 SW 1026,1 6 0,4
18.06.2018 09:00:00 16,8 16,0 16,1 19,9 18,9 9 5 13 7 SW 1026,0 9 0,0
18.06.2018 08:00:00 16,1 15,0 15,5 20,0 18,9 7 4 12 7 SW 1025,9 15 0,0
18.06.2018 07:00:00 16,0 14,4 15,4 20,1 18,9 8 4 10 6 SW 1025,7 14 0,0
18.06.2018 06:00:00 15,6 13,6 15,3 20,3 18,9 6 4 9 5 SSW 1025,5 24 0,0
18.06.2018 05:00:00 15,8 13,6 15,1 20,5 18,9 5 3 8 4 SW 1025,5 29 0,0
18.06.2018 04:00:00 15,7 13,5 15,1 20,6 18,9 3 2 17 9 SW 1025,5 29 0,0
18.06.2018 03:00:00 15,7 12,6 15,3 20,8 18,9 8 5 11 6 WSW 1025,8 29 0,0
18.06.2018 02:00:00 15,7 12,4 13,6 21,0 18,9 6 3 9 5 WSW 1026,0 26 0,0
18.06.2018 01:00:00 14,9 12,0 13,2 21,3 18,9 5 3 8 5 WSW 1026,2 26 0,0
18.06.2018 00:00:00 15,3 11,7 13,5 21,6 18,9 6 3 8 4 SW 1026,1 30 0,0
17.06.2018 23:00:00 15,8 11,6 13,4 21,9 18,9 5 3 9 5 SW 1025,9 43 0,0
17.06.2018 22:00:00 16,7 11,4 15,8 22,2 18,9 7 4 23 12 WNW 1025,7 2,2 0,0
17.06.2018 21:00:00 18,5 11,1 18,3 22,4 18,9 16 8 27 15 WNW 1025,3 36 0,0
17.06.2018 20:00:00 19,9 11,4 21,5 22,5 18,9 16 9 31 17 NW 1025,0 19 0,0
17.06.2018 19:00:00 20,6 11,5 22,8 22,4 18,9 17 9 39 21 WNW 1024,6 26 0,0
17.06.2018 18:00:00 21,2 11,8 23,0 22,2 18,9 21 11 37 20 WNW 1024,6 21 0,0
17.06.2018 17:00:00 21,5 12,6 22,8 21,8 18,9 23 13 43 23 W 1024,2 41 0,0
17.06.2018 16:00:00 22,4 13,7 23,5 21,4 18,9 22 12 38 21 WNW 1024,1 44 0,0
17.06.2018 15:00:00 22,2 13,5 24,1 20,9 18,9 22 12 35 19 W 1023,7 20 0,0
17.06.2018 14:00:00 21,7 13,6 24,2 20,4 18,9 23 12 40 22 W 1023,8 25 0,0
17.06.2018 13:00:00 20,3 13,3 21,7 20,0 18,9 21 11 35 19 WSW 1023,9 42 0,0
17.06.2018 12:00:00 21,1 13,3 20,9 19,7 18,9 19 10 30 16 WSW 1023,9 20 0,0
17.06.2018 11:00:00 18,9 13,7 20,6 19,5 18,9 15 8 21 11 WSW 1024,1 51 0,0
17.06.2018 10:00:00 18,9 14,4 20,1 19,3 18,9 10 5 19 11 SW 1023,9 53 0,0
17.06.2018 09:00:00 17,2 13,9 19,2 19,3 19,0 10 5 17 9 SSW 1023,8 28 0,0
17.06.2018 08:00:00 16,4 13,7 15,3 19,3 18,9 6 3 10 6 S 1023,3 26 0,0
17.06.2018 07:00:00 15,0 13,4 14,6 19,4 18,9 3 2 9 5 SE 1023,2 20 0,0
17.06.2018 06:00:00 15,1 13,1 14,7 19,6 18,9 3 2 13 7 NW 1023,0 28 0,0
17.06.2018 05:00:00 15,4 12,5 15,0 19,7 18,9 6 3 10 5 W 1022,6 38 0,0
17.06.2018 04:00:00 15,6 12,5 15,2 19,8 18,9 5 3 9 5 SW 1022,6 41 0,0
17.06.2018 03:00:00 15,8 12,2 15,3 19,9 18,9 5 3 8 4 WSW 1022,4 40 0,0
17.06.2018 02:00:00 15,5 12,3 15,0 20,1 18,9 5 3 9 5 W 1022,7 33 0,0
17.06.2018 01:00:00 15,6 12,0 14,2 20,3 18,9 6 4 9 5 SW 1022,6 36 0,0
17.06.2018 00:00:00 15,2 12,0 12,8 20,6 18,9 5 3 9 5 WSW 1022,8 32 0,0
16.06.2018 23:00:00 16,3 11,4 14,7 20,8 18,9 4 2 9 5 W 1022,4 60 0,0
16.06.2018 22:00:00 16,6 11,3 15,3 21,0 19,0 6 3 16 9 WNW 1021,9 8 0,0
16.06.2018 21:00:00 18,1 10,9 17,7 21,2 18,9 14 8 28 15 WNW 1021,4 59 0,0
16.06.2018 20:00:00 19,2 11,2 20,0 21,2 19,0 19 11 29 16 WNW 1021,1 38 0,0
16.06.2018 19:00:00 19,6 11,6 20,2 21,1 19,0 16 9 29 16 W 1020,5 45 0,0

tt = Température de l'air
td = dewpoint
tt 5cm = Température de l'air 5cm
tt -20cm = Température de l'air -20cm
tt -100cm = Température de l'air -100cm
ff = Vitesse du vent
fx = gusts
dd = Direction du vent
ppp = reduced air pressure
vv = visibility
rr = Quantités de précipitations

stations d'obs. à proximité